QPF
0.01 0.02 0.04 0.04 0.03 0.02 0.00 0.02 0.02 0.02 0.04 0.08 0.04 0.01 0.01 0.02 0.00 0.01 0.03 0.00 0.01 0.02 0.01 0.00 0.00 0.00 0.01 0.00 0.00 0.00 0.01 0.02 0.02 0.00 0.00 0.00 0.00 0.00 0.00 0.00 0.00 0.00 0.00 0.00
0.02 0.01 0.01 0.02 0.02 0.02 0.02 0.03 0.00 0.02 0.14 0.05 0.01 0.00 0.00 0.04 0.05 0.02 0.02 0.00 0.00 0.00 0.00 0.00 0.00 0.00 0.00 0.00 0.00 0.00 0.00 0.00 0.00 0.00 0.00 0.00 0.00 0.00 0.00 0.00 0.00 0.00 0.00 0.00
0.00 0.00 0.01 0.03 0.03 0.03 0.04 0.07 0.03 0.01 0.07 0.03 0.03 0.04 0.03 0.01 0.03 0.05 0.03 0.01 0.00 0.00 0.00 0.00 0.00 0.00 0.00 0.00 0.00 0.00 0.00 0.00 0.00 0.01 0.04 0.01 0.00 0.00 0.00 0.00 0.00 0.00 0.00 0.00
0.01 0.00 0.01 0.02 0.03 0.05 0.07 0.05 0.03 0.01 0.02 0.01 0.01 0.03 0.06 0.06 0.03 0.03 0.03 0.06 0.02 0.01 0.00 0.00 0.00 0.00 0.00 0.00 0.00 0.00 0.00 0.00 0.00 0.00 0.00 0.00 0.00 0.00 0.00 0.00 0.00 0.00 0.00 0.00
0.01 0.01 0.01 0.01 0.03 0.09 0.09 0.02 0.01 0.00 0.00 0.02 0.03 0.02 0.01 0.01 0.02 0.07 0.06 0.05 0.02 0.00 0.01 0.00 0.01 0.02 0.03 0.02 0.00 0.00 0.01 0.01 0.00 0.00 0.00 0.00 0.00 0.00 0.00 0.00 0.00 0.00 0.00 0.00
0.05 0.03 0.04 0.06 0.08 0.10 0.10 0.02 0.01 0.02 0.01 0.01 0.01 0.03 0.02 0.00 0.00 0.02 0.05 0.05 0.03 0.02 0.00 0.00 0.00 0.00 0.01 0.00 0.00 0.00 0.01 0.00 0.01 0.00 0.00 0.00 0.00 0.00 0.00 0.00 0.00 0.00 0.00 0.00
0.03 0.05 0.05 0.05 0.13 0.22 0.13 0.04 0.00 0.03 0.03 0.02 0.03 0.01 0.01 0.00 0.00 0.01 0.01 0.04 0.04 0.01 0.00 0.00 0.00 0.00 0.00 0.00 0.00 0.00 0.00 0.00 0.02 0.01 0.00 0.00 0.00 0.00 0.00 0.00 0.00 0.00 0.00 0.00
0.02 0.03 0.02 0.01 0.03 0.21 0.27 0.11 0.04 0.02 0.01 0.00 0.01 0.03 0.04 0.02 0.01 0.00 0.01 0.02 0.05 0.04 0.01 0.01 0.02 0.00 0.00 0.00 0.00 0.00 0.00 0.00 0.03 0.01 0.00 0.00 0.00 0.00 0.00 0.00 0.00 0.01 0.02 0.01
0.00 0.01 0.02 0.02 0.01 0.04 0.28 0.30 0.05 0.05 0.07 0.02 0.00 0.00 0.01 0.04 0.05 0.03 0.01 0.05 0.06 0.06 0.04 0.02 0.02 0.03 0.03 0.03 0.02 0.00 0.00 0.00 0.02 0.02 0.01 0.00 0.05 0.02 0.00 0.00 0.01 0.02 0.04 0.03
0.00 0.01 0.01 0.01 0.02 0.02 0.05 0.19 0.12 0.12 0.13 0.01 0.01 0.01 0.01 0.02 0.04 0.05 0.07 0.05 0.04 0.05 0.02 0.02 0.01 0.02 0.03 0.02 0.05 0.03 0.00 0.02 0.03 0.01 0.01 0.00 0.03 0.09 0.03 0.03 0.02 0.02 0.06 0.16
0.00 0.00 0.00 0.01 0.01 0.02 0.05 0.03 0.02 0.12 0.15 0.01 0.01 0.01 0.01 0.01 0.07 0.09 0.11 0.03 0.04 0.06 0.03 0.02 0.02 0.02 0.02 0.00 0.02 0.06 0.03 0.02 0.02 0.01 0.02 0.01 0.00 0.06 0.06 0.02 0.01 0.07 0.20 0.13
0.01 0.00 0.00 0.01 0.01 0.02 0.04 0.05 0.02 0.04 0.10 0.02 0.00 0.01 0.00 0.01 0.03 0.08 0.18 0.03 0.01 0.01 0.00 0.01 0.04 0.03 0.02 0.01 0.00 0.01 0.02 0.01 0.02 0.01 0.02 0.06 0.12 0.06 0.00 0.00 0.00 0.00 0.03 0.09
0.02 0.01 0.00 0.01 0.03 0.04 0.03 0.02 0.05 0.03 0.07 0.02 0.00 0.00 0.00 0.00 0.01 0.01 0.05 0.04 0.02 0.02 0.02 0.06 0.06 0.05 0.03 0.03 0.01 0.02 0.01 0.01 0.03 0.02 0.02 0.04 0.09 0.03 0.00 0.00 0.00 0.00 0.00 0.01
0.01 0.02 0.01 0.01 0.02 0.07 0.07 0.03 0.02 0.01 0.02 0.02 0.01 0.00 0.00 0.00 0.00 0.00 0.00 0.02 0.01 0.02 0.05 0.08 0.07 0.05 0.02 0.02 0.01 0.02 0.04 0.05 0.03 0.03 0.03 0.03 0.06 0.02 0.00 0.00 0.00 0.00 0.00 0.00
0.00 0.01 0.01 0.01 0.02 0.06 0.14 0.06 0.01 0.00 0.02 0.03 0.01 0.00 0.00 0.00 0.00 0.00 0.02 0.04 0.02 0.04 0.05 0.05 0.03 0.02 0.02 0.01 0.01 0.04 0.03 0.03 0.03 0.07 0.01 0.03 0.10 0.00 0.00 0.00 0.00 0.00 0.00 0.00
0.00 0.01 0.01 0.01 0.02 0.09 0.42 0.37 0.11 0.03 0.05 0.08 0.05 0.01 0.00 0.00 0.00 0.01 0.03 0.04 0.05 0.12 0.11 0.03 0.02 0.01 0.04 0.03 0.05 0.02 0.00 0.00 0.00 0.00 0.00 0.00 0.00 0.00 0.00 0.00 0.00 0.00 0.00 0.00
0.00 0.01 0.02 0.03 0.05 0.19 0.33 0.09 0.03 0.01 0.07 0.07 0.03 0.04 0.00 0.00 0.01 0.03 0.05 0.06 0.05 0.17 0.11 0.03 0.02 0.05 0.07 0.05 0.12 0.04 0.01 0.00 0.00 0.00 0.00 0.00 0.00 0.00 0.00 0.00 0.00 0.00 0.00 0.00
0.00 0.02 0.04 0.11 0.24 0.21 0.07 0.02 0.00 0.01 0.04 0.04 0.04 0.10 0.04 0.02 0.02 0.04 0.04 0.08 0.07 0.03 0.06 0.02 0.03 0.07 0.12 0.12 0.02 0.00 0.00 0.00 0.00 0.00 0.00 0.00 0.00 0.00 0.00 0.00 0.00 0.00 0.00 0.00
0.05 0.17 0.31 0.48 0.36 0.32 0.16 0.01 0.01 0.02 0.03 0.05 0.02 0.06 0.14 0.05 0.06 0.05 0.05 0.07 0.09 0.03 0.02 0.02 0.06 0.05 0.10 0.07 0.00 0.00 0.00 0.00 0.00 0.00 0.00 0.00 0.00 0.00 0.00 0.00 0.00 0.00 0.00 0.00
0.21 0.27 0.24 0.28 0.17 0.07 0.04 0.05 0.09 0.08 0.05 0.06 0.03 0.04 0.05 0.05 0.06 0.03 0.02 0.03 0.06 0.04 0.01 0.02 0.04 0.03 0.01 0.00 0.00 0.00 0.00 0.00 0.00 0.00 0.00 0.00 0.00 0.00 0.00 0.00 0.00 0.00 0.00 0.00
0.09 0.07 0.13 0.16 0.09 0.05 0.05 0.06 0.05 0.03 0.03 0.02 0.01 0.06 0.03 0.01 0.05 0.02 0.03 0.01 0.01 0.02 0.02 0.03 0.02 0.01 0.00 0.00 0.00 0.00 0.00 0.00 0.00 0.00 0.00 0.00 0.00 0.00 0.00 0.00 0.00 0.00 0.00 0.00
0.00 0.02 0.07 0.08 0.07 0.05 0.03 0.02 0.02 0.03 0.03 0.01 0.01 0.02 0.03 0.01 0.09 0.05 0.01 0.01 0.03 0.04 0.01 0.03 0.03 0.02 0.00 0.00 0.00 0.00 0.00 0.00 0.00 0.00 0.00 0.00 0.00 0.00 0.00 0.00 0.00 0.00 0.00 0.00
0.00 0.00 0.00 0.00 0.00 0.01 0.02 0.01 0.02 0.03 0.00 0.01 0.00 0.01 0.00 0.00 0.17 0.09 0.02 0.04 0.12 0.04 0.04 0.03 0.02 0.00 0.00 0.00 0.00 0.00 0.00 0.00 0.00 0.00 0.00 0.00 0.00 0.00 0.00 0.00 0.01 0.01 0.01 0.02
0.00 0.00 0.00 0.00 0.00 0.00 0.01 0.02 0.02 0.01 0.00 0.01 0.02 0.04 0.04 0.06 0.13 0.08 0.01 0.01 0.02 0.05 0.04 0.02 0.02 0.01 0.00 0.00 0.00 0.00 0.00 0.00 0.00 0.00 0.00 0.00 0.00 0.01 0.00 0.01 0.01 0.01 0.01 0.02
0.00 0.00 0.01 0.01 0.02 0.01 0.01 0.02 0.03 0.06 0.04 0.07 0.14 0.10 0.08 0.08 0.14 0.04 0.03 0.03 0.02 0.02 0.02 0.03 0.01 0.01 0.00 0.00 0.00 0.01 0.00 0.00 0.01 0.00 0.00 0.01 0.00 0.01 0.01 0.02 0.02 0.02 0.02 0.02
0.00 0.01 0.02 0.02 0.04 0.04 0.03 0.06 0.09 0.07 0.11 0.14 0.15 0.11 0.08 0.04 0.04 0.01 0.02 0.02 0.01 0.03 0.02 0.02 0.01 0.00 0.01 0.01 0.00 0.00 0.00 0.01 0.01 0.01 0.00 0.00 0.01 0.01 0.02 0.02 0.02 0.02 0.02 0.02
0.00 0.01 0.01 0.01 0.02 0.03 0.04 0.06 0.03 0.01 0.03 0.03 0.02 0.01 0.02 0.01 0.00 0.00 0.01 0.02 0.03 0.02 0.01 0.01 0.01 0.01 0.01 0.00 0.01 0.01 0.01 0.01 0.01 0.01 0.01 0.01 0.01 0.01 0.01 0.01 0.03 0.03 0.03 0.03
MSLP
1014.82 1014.90 1014.87 1014.98 1015.25 1015.64 1015.88 1014.91 1013.74 1010.88 1011.49 1012.97 1012.22 1011.32 1010.29 1009.85 1008.52 1008.15 1008.85 1007.57 1005.55 1005.55 1003.89 1002.52 1000.98 1000.54 1001.29 1001.85 1001.85 1001.76 1002.54 1001.67 1000.54 999.11 997.95 997.96 998.03 998.72 999.37 999.58 998.80 998.02 997.32 995.34
1014.27 1014.45 1014.48 1014.74 1015.00 1015.40 1015.31 1014.38 1012.83 1011.73 1011.91 1011.52 1011.05 1010.41 1009.87 1009.40 1008.97 1008.55 1008.18 1007.39 1005.31 1005.46 1004.80 1003.64 1002.28 1001.81 1002.20 1002.79 1002.71 1003.59 1003.73 1002.40 1001.56 999.96 999.09 998.66 998.19 998.03 998.30 998.70 998.69 997.88 997.15 995.36
1013.56 1013.70 1013.91 1014.19 1014.45 1014.80 1015.33 1014.64 1012.97 1011.46 1011.87 1011.10 1010.49 1009.71 1009.02 1008.41 1008.49 1008.78 1008.66 1007.78 1006.06 1004.93 1004.50 1003.96 1003.45 1002.94 1002.98 1003.49 1003.77 1004.43 1004.64 1003.95 1003.03 1001.85 1001.48 1001.21 1000.28 998.96 998.13 997.89 997.83 997.68 996.72 995.80
1012.67 1012.85 1013.13 1013.42 1013.74 1014.36 1015.23 1014.34 1012.56 1010.92 1010.66 1010.47 1009.94 1009.52 1008.76 1008.42 1007.83 1007.73 1008.09 1008.11 1007.34 1005.64 1004.75 1004.47 1004.21 1003.98 1004.00 1004.55 1004.97 1004.93 1004.82 1004.43 1003.81 1002.62 1001.94 1001.46 1000.52 999.59 998.75 997.94 997.55 997.41 997.04 996.06
1011.45 1011.70 1012.06 1012.51 1013.02 1013.72 1014.54 1013.68 1012.58 1011.29 1010.52 1010.11 1009.39 1008.79 1008.09 1007.67 1007.76 1007.89 1007.97 1007.65 1007.03 1006.19 1006.18 1005.25 1004.65 1005.15 1005.23 1005.06 1005.12 1004.74 1004.91 1004.73 1004.17 1003.22 1002.28 1001.44 1000.27 999.52 998.89 998.35 997.97 997.69 997.24 996.32
1010.21 1010.41 1010.78 1011.36 1012.03 1012.91 1013.11 1012.87 1012.29 1012.19 1010.72 1009.79 1008.98 1008.44 1007.82 1007.01 1007.06 1007.06 1007.78 1008.38 1007.11 1006.22 1005.73 1005.26 1005.68 1006.36 1006.32 1006.23 1005.75 1005.64 1005.64 1005.40 1005.01 1003.95 1003.14 1001.87 1000.29 999.18 998.50 998.39 998.27 998.16 997.76 997.52
1009.03 1009.28 1009.64 1010.14 1010.77 1011.59 1012.43 1012.04 1012.14 1012.30 1010.78 1010.29 1008.88 1007.97 1007.04 1006.69 1006.56 1006.57 1006.69 1008.05 1007.79 1006.56 1006.29 1006.27 1005.90 1005.81 1005.72 1005.59 1005.50 1005.78 1005.84 1005.91 1005.88 1004.91 1003.76 1001.94 1000.05 998.77 998.43 998.26 998.75 999.00 998.71 998.41
1008.16 1008.32 1008.65 1009.10 1009.64 1010.28 1011.03 1011.82 1011.79 1011.30 1010.39 1009.61 1008.64 1007.79 1007.25 1006.53 1006.14 1006.11 1006.17 1006.10 1007.13 1007.40 1006.70 1006.75 1006.37 1005.59 1005.20 1004.30 1004.24 1004.76 1005.31 1005.89 1006.13 1005.36 1003.99 1002.14 1000.52 999.52 998.88 999.15 999.98 1000.95 1000.93 1000.66
1007.30 1007.52 1007.81 1008.21 1008.79 1009.41 1010.00 1010.90 1011.40 1011.04 1010.66 1008.68 1008.18 1007.33 1006.58 1006.57 1006.49 1006.29 1006.13 1007.39 1007.67 1007.92 1008.15 1007.60 1006.73 1005.05 1004.01 1002.73 1002.51 1003.28 1004.43 1005.41 1005.88 1005.32 1004.42 1002.44 1000.61 1000.81 1000.18 1000.09 1000.79 1001.90 1002.37 1002.09
1006.34 1006.64 1007.00 1007.45 1008.02 1008.69 1009.57 1009.90 1010.71 1011.16 1010.32 1008.47 1007.86 1007.19 1006.54 1005.93 1006.10 1006.62 1006.36 1007.74 1008.01 1008.04 1008.07 1007.77 1006.56 1005.00 1003.60 1002.56 1001.94 1002.72 1003.60 1004.84 1005.25 1005.25 1004.61 1002.84 1001.52 1001.61 1001.85 1001.49 1002.89 1002.69 1002.72 1002.77
1005.25 1005.65 1006.10 1006.61 1007.20 1007.92 1008.76 1009.12 1009.91 1010.31 1009.93 1008.51 1007.65 1006.75 1006.07 1005.91 1005.85 1006.48 1007.06 1007.84 1008.45 1008.48 1008.14 1007.40 1006.10 1004.68 1003.96 1002.25 1001.75 1002.94 1003.55 1004.18 1004.54 1004.82 1004.20 1003.52 1002.50 1001.73 1002.50 1003.31 1002.96 1002.98 1002.90 1002.63
1004.14 1004.63 1005.17 1005.73 1006.35 1007.13 1008.02 1008.55 1009.00 1009.74 1009.95 1009.22 1008.36 1006.84 1005.65 1005.30 1005.63 1007.02 1006.22 1006.33 1006.80 1007.00 1007.18 1006.39 1005.54 1004.53 1003.51 1002.48 1002.16 1002.04 1003.19 1003.02 1003.40 1004.09 1003.62 1003.52 1004.15 1004.04 1003.63 1003.75 1003.74 1003.81 1003.36 1002.79
1002.97 1003.50 1004.13 1004.78 1005.48 1006.19 1007.08 1007.81 1008.28 1009.09 1009.56 1008.92 1007.63 1005.81 1005.07 1005.20 1005.09 1005.61 1006.17 1006.59 1006.10 1006.31 1006.19 1006.31 1005.84 1004.94 1003.85 1003.43 1002.95 1003.25 1003.07 1002.42 1003.24 1004.00 1003.84 1004.14 1004.80 1004.68 1004.83 1004.59 1004.46 1004.36 1004.00 1003.50
1001.66 1002.17 1002.92 1003.72 1004.47 1005.33 1006.33 1007.15 1007.63 1008.35 1008.55 1007.64 1005.30 1004.05 1004.29 1004.21 1004.53 1004.78 1005.28 1005.37 1005.75 1006.10 1006.72 1006.77 1006.10 1005.46 1003.88 1003.91 1004.00 1004.04 1004.22 1004.27 1003.72 1004.10 1004.41 1004.97 1005.51 1005.65 1005.80 1005.45 1005.14 1005.03 1004.80 1004.51
1000.38 1000.96 1001.78 1002.67 1003.61 1004.65 1005.83 1006.71 1006.93 1007.00 1006.70 1005.92 1004.74 1003.95 1003.42 1003.62 1004.01 1004.28 1004.60 1005.21 1006.05 1006.57 1007.05 1006.85 1005.90 1005.11 1005.04 1004.45 1004.36 1005.49 1006.04 1005.52 1005.24 1005.48 1006.05 1005.87 1006.51 1006.93 1006.82 1006.43 1006.38 1006.20 1006.27 1006.38
999.07 999.84 1000.74 1001.80 1002.87 1004.18 1005.41 1006.32 1006.86 1006.47 1006.41 1006.38 1004.74 1003.24 1002.87 1003.35 1003.68 1004.05 1004.56 1005.31 1006.19 1006.88 1007.15 1006.40 1005.68 1005.04 1005.49 1005.72 1006.24 1007.67 1007.66 1007.52 1007.59 1007.41 1007.34 1007.21 1007.51 1007.51 1007.71 1007.64 1007.50 1007.29 1007.45 1007.80
997.80 998.98 1000.03 1001.18 1002.32 1003.39 1004.41 1004.40 1004.46 1005.58 1006.43 1006.23 1005.03 1003.65 1002.52 1003.10 1003.54 1004.13 1004.85 1005.58 1006.41 1007.16 1007.18 1006.63 1005.98 1005.66 1005.74 1006.84 1007.69 1009.16 1009.49 1009.00 1008.96 1008.79 1008.08 1007.93 1008.41 1008.57 1008.71 1008.76 1008.74 1008.00 1008.22 1009.06
997.12 998.53 999.75 1001.03 1002.37 1003.75 1004.29 1003.68 1003.80 1005.04 1006.11 1005.91 1005.04 1004.01 1003.35 1003.14 1003.69 1004.48 1005.35 1005.93 1006.37 1006.88 1007.00 1006.61 1006.03 1006.30 1007.10 1008.35 1009.76 1010.31 1010.62 1010.17 1009.90 1009.93 1009.47 1009.33 1009.37 1009.47 1009.74 1009.88 1009.79 1009.38 1009.89 1010.56
997.41 998.58 1000.00 1001.50 1002.80 1003.76 1003.96 1004.06 1004.67 1004.94 1005.34 1005.09 1004.51 1003.73 1003.57 1003.70 1004.17 1004.72 1005.48 1006.08 1006.60 1006.73 1006.70 1006.20 1006.26 1006.91 1009.01 1010.78 1011.35 1011.81 1012.01 1011.86 1011.56 1011.07 1010.24 1010.30 1010.23 1010.50 1010.72 1011.02 1011.20 1011.34 1011.83 1012.18
998.75 999.85 1000.82 1002.11 1002.52 1003.13 1004.05 1005.28 1005.70 1005.82 1005.41 1004.54 1003.92 1003.19 1004.06 1004.46 1004.77 1005.28 1005.78 1006.08 1006.49 1006.52 1006.35 1006.07 1006.88 1009.61 1011.32 1011.96 1012.54 1012.94 1013.22 1013.20 1013.00 1012.39 1011.97 1011.98 1011.93 1011.94 1011.99 1012.44 1013.00 1013.37 1013.69 1014.06
999.27 1000.34 1001.27 1002.40 1002.67 1003.14 1004.15 1005.00 1005.17 1005.04 1004.82 1003.97 1003.61 1003.51 1004.26 1005.25 1004.92 1005.17 1005.27 1005.80 1005.98 1005.91 1005.95 1006.42 1007.92 1010.38 1012.02 1012.64 1013.22 1013.88 1014.19 1014.36 1014.42 1014.42 1014.32 1014.22 1014.04 1013.79 1013.54 1013.72 1014.29 1014.80 1015.20 1015.65
999.51 1000.96 1002.51 1003.01 1003.16 1003.40 1003.91 1004.33 1004.48 1004.04 1003.81 1003.90 1004.03 1004.20 1004.34 1005.31 1005.57 1005.37 1005.79 1005.78 1006.11 1006.13 1006.58 1007.25 1009.44 1012.35 1013.21 1013.77 1014.27 1014.83 1015.22 1015.47 1015.53 1015.63 1015.66 1015.73 1015.77 1015.59 1015.48 1015.69 1016.12 1016.58 1016.97 1017.28
999.92 1000.76 1002.41 1002.88 1003.74 1003.87 1004.17 1004.63 1004.52 1004.78 1004.96 1005.23 1005.30 1005.19 1005.03 1005.69 1006.19 1005.78 1005.56 1005.88 1006.44 1006.77 1007.53 1009.60 1012.18 1013.81 1014.59 1015.13 1015.47 1015.82 1016.30 1016.62 1016.78 1016.92 1017.01 1017.19 1017.36 1017.34 1017.21 1017.45 1017.73 1017.97 1018.21 1018.51
1001.16 1002.34 1003.87 1004.57 1005.01 1005.84 1006.25 1006.20 1006.16 1006.70 1006.46 1006.18 1006.08 1005.89 1005.74 1006.08 1006.37 1006.05 1006.17 1006.92 1007.11 1007.71 1009.21 1011.83 1013.94 1015.07 1015.80 1016.29 1016.59 1016.82 1017.28 1017.54 1017.69 1017.97 1018.19 1018.39 1018.46 1018.54 1018.65 1018.79 1019.04 1019.17 1019.43 1019.77
1003.67 1004.48 1005.66 1006.62 1007.33 1007.56 1007.72 1007.52 1007.35 1007.67 1007.45 1007.01 1006.64 1006.38 1006.36 1006.77 1007.13 1007.20 1007.47 1007.95 1008.76 1010.23 1011.97 1013.92 1015.43 1016.27 1016.78 1017.30 1017.62 1017.85 1018.14 1018.42 1018.64 1018.95 1019.16 1019.30 1019.41 1019.59 1019.82 1020.01 1020.12 1020.24 1020.48 1020.77
1006.12 1007.36 1007.50 1007.88 1007.81 1008.39 1008.62 1008.66 1008.38 1008.26 1007.82 1007.40 1006.89 1006.59 1007.15 1007.80 1008.04 1008.51 1009.27 1009.49 1011.22 1013.08 1014.38 1015.57 1016.56 1017.38 1017.91 1018.30 1018.59 1018.79 1018.95 1019.11 1019.40 1019.64 1019.88 1020.10 1020.28 1020.63 1021.02 1021.28 1021.46 1021.60 1021.76 1021.97
1007.79 1008.98 1009.42 1009.03 1009.43 1009.72 1009.80 1009.52 1009.14 1008.44 1007.73 1007.29 1007.02 1007.50 1008.02 1008.32 1009.26 1011.05 1012.17 1013.03 1014.28 1015.27 1016.26 1017.10 1017.80 1018.24 1018.74 1019.05 1019.20 1019.43 1019.62 1019.81 1020.00 1020.24 1020.36 1020.71 1021.12 1021.35 1021.57 1021.84 1022.44 1022.68 1022.93 1023.11
Thickness
5344 5346 5351 5354 5356 5357 5361 5374 5380 5415 5410 5392 5403 5409 5426 5434 5451 5458 5447 5467 5500 5492 5508 5523 5544 5552 5545 5548 5554 5553 5547 5556 5558 5582 5608 5610 5606 5593 5592 5578 5594 5614 5613 5624
5345 5346 5349 5350 5352 5353 5359 5368 5389 5402 5400 5399 5408 5420 5424 5430 5437 5446 5456 5462 5496 5492 5493 5504 5524 5534 5537 5538 5542 5530 5537 5550 5546 5569 5588 5597 5595 5607 5607 5603 5604 5598 5594 5620
5347 5348 5350 5351 5351 5352 5351 5358 5374 5399 5393 5406 5410 5420 5427 5434 5441 5437 5441 5456 5479 5491 5494 5505 5508 5519 5524 5527 5528 5523 5527 5532 5538 5544 5543 5555 5561 5583 5605 5607 5593 5598 5607 5622
5351 5351 5352 5352 5352 5348 5345 5356 5377 5402 5397 5402 5411 5418 5428 5422 5438 5447 5447 5438 5458 5482 5488 5493 5498 5508 5513 5512 5510 5518 5522 5521 5533 5549 5557 5558 5563 5573 5585 5592 5602 5592 5604 5613
5356 5356 5355 5354 5352 5347 5344 5355 5371 5391 5400 5403 5411 5418 5427 5434 5436 5435 5438 5450 5461 5473 5466 5482 5489 5488 5495 5500 5507 5516 5520 5517 5530 5539 5553 5558 5563 5573 5580 5586 5593 5595 5601 5608
5361 5361 5360 5358 5355 5349 5352 5363 5373 5372 5390 5402 5411 5413 5423 5439 5442 5446 5438 5433 5457 5467 5474 5480 5479 5476 5481 5485 5495 5500 5504 5509 5514 5522 5538 5546 5550 5569 5577 5582 5590 5591 5584 5596
5365 5366 5366 5365 5361 5356 5354 5365 5366 5360 5378 5387 5404 5417 5432 5436 5441 5443 5449 5427 5435 5461 5468 5470 5477 5482 5488 5493 5496 5497 5497 5501 5503 5509 5521 5525 5561 5579 5580 5581 5581 5584 5587 5590
5368 5369 5369 5369 5367 5362 5358 5358 5361 5370 5377 5391 5402 5412 5419 5434 5442 5445 5452 5457 5447 5453 5461 5460 5466 5478 5486 5498 5503 5501 5502 5497 5488 5499 5515 5536 5551 5564 5569 5566 5562 5553 5556 5562
5369 5369 5369 5369 5367 5363 5360 5356 5357 5364 5368 5391 5403 5413 5425 5422 5427 5440 5451 5436 5437 5442 5431 5442 5452 5477 5495 5513 5516 5513 5506 5499 5495 5500 5504 5518 5550 5546 5559 5561 5549 5545 5539 5543
5370 5369 5368 5366 5364 5361 5357 5356 5354 5353 5363 5391 5401 5405 5414 5432 5434 5430 5446 5425 5429 5437 5438 5440 5456 5476 5501 5505 5514 5508 5505 5494 5489 5495 5497 5521 5542 5536 5532 5537 5530 5535 5539 5536
5372 5370 5368 5366 5364 5361 5357 5358 5354 5354 5358 5384 5398 5408 5416 5424 5425 5427 5427 5422 5415 5416 5427 5444 5465 5479 5485 5510 5520 5499 5496 5493 5491 5495 5500 5503 5530 5536 5521 5518 5530 5533 5536 5534
5374 5372 5370 5368 5366 5363 5359 5360 5358 5354 5354 5372 5381 5399 5415 5423 5424 5416 5423 5440 5430 5440 5441 5460 5471 5479 5490 5504 5503 5518 5499 5509 5505 5504 5510 5514 5502 5512 5517 5516 5516 5519 5525 5533
5375 5373 5371 5370 5368 5366 5364 5361 5361 5355 5353 5366 5380 5404 5415 5418 5424 5424 5421 5424 5442 5444 5454 5454 5460 5465 5486 5486 5498 5492 5506 5518 5505 5500 5508 5506 5496 5498 5500 5503 5506 5508 5515 5522
5375 5374 5373 5371 5370 5368 5364 5362 5362 5361 5362 5369 5399 5416 5415 5423 5425 5430 5432 5438 5443 5445 5441 5438 5449 5454 5486 5483 5486 5491 5494 5495 5507 5502 5500 5495 5488 5490 5486 5491 5497 5498 5504 5509
5372 5372 5371 5370 5370 5368 5363 5361 5364 5368 5377 5385 5397 5412 5421 5425 5428 5434 5438 5437 5435 5431 5428 5432 5448 5466 5467 5480 5487 5467 5464 5474 5484 5480 5476 5484 5475 5471 5473 5479 5481 5485 5485 5485
5373 5372 5370 5368 5368 5364 5359 5351 5359 5370 5374 5376 5392 5418 5424 5426 5430 5434 5436 5433 5429 5426 5424 5442 5454 5466 5462 5459 5463 5443 5451 5457 5455 5458 5460 5465 5463 5465 5462 5463 5467 5473 5474 5471
5374 5373 5371 5368 5367 5366 5365 5375 5382 5374 5372 5376 5389 5406 5429 5429 5431 5430 5427 5427 5422 5417 5419 5431 5447 5455 5459 5446 5448 5423 5425 5439 5439 5443 5452 5455 5450 5449 5452 5452 5454 5467 5466 5458
5373 5371 5370 5367 5364 5361 5364 5377 5381 5376 5372 5378 5387 5401 5415 5427 5425 5422 5420 5417 5419 5420 5420 5433 5447 5449 5440 5429 5418 5415 5413 5424 5429 5429 5438 5440 5443 5444 5441 5439 5441 5450 5445 5440
5371 5370 5367 5363 5360 5358 5368 5373 5374 5376 5380 5383 5393 5404 5413 5417 5415 5419 5416 5413 5410 5417 5421 5438 5444 5436 5410 5393 5395 5396 5397 5401 5407 5416 5431 5431 5433 5430 5429 5425 5424 5424 5421 5419
5368 5366 5364 5359 5367 5370 5370 5365 5361 5363 5372 5390 5400 5418 5407 5407 5403 5406 5410 5411 5410 5419 5426 5439 5429 5391 5385 5388 5388 5386 5385 5389 5392 5399 5404 5406 5408 5410 5413 5407 5403 5400 5399 5396
5378 5372 5371 5367 5370 5374 5371 5367 5374 5379 5380 5400 5408 5414 5403 5396 5408 5407 5418 5413 5421 5429 5435 5436 5424 5395 5382 5385 5381 5376 5375 5374 5375 5377 5379 5381 5384 5388 5393 5391 5384 5379 5375 5371
5388 5376 5366 5367 5373 5380 5381 5383 5388 5399 5406 5400 5400 5405 5406 5397 5393 5408 5407 5410 5414 5426 5415 5426 5401 5369 5370 5369 5367 5364 5361 5360 5361 5361 5361 5360 5361 5363 5365 5363 5358 5353 5349 5345
5391 5388 5376 5384 5375 5382 5390 5385 5397 5390 5383 5381 5381 5388 5397 5391 5387 5396 5411 5408 5414 5411 5415 5388 5365 5353 5352 5350 5350 5348 5345 5343 5343 5343 5343 5341 5338 5338 5340 5337 5334 5331 5329 5326
5382 5377 5362 5370 5369 5358 5355 5361 5364 5356 5363 5370 5372 5381 5389 5384 5392 5394 5403 5396 5403 5411 5405 5367 5345 5337 5334 5333 5333 5333 5327 5327 5328 5326 5324 5322 5320 5318 5317 5315 5312 5310 5306 5304
5362 5363 5355 5346 5342 5342 5342 5347 5354 5348 5352 5362 5372 5380 5385 5384 5384 5388 5392 5393 5390 5376 5362 5341 5327 5323 5322 5318 5318 5317 5315 5313 5312 5310 5308 5305 5304 5302 5299 5296 5294 5291 5287 5284
5345 5335 5346 5342 5351 5342 5338 5338 5344 5347 5352 5358 5370 5383 5380 5375 5380 5379 5372 5392 5368 5345 5332 5322 5316 5309 5306 5304 5303 5302 5302 5302 5299 5296 5294 5292 5289 5285 5280 5275 5272 5270 5267 5264
5339 5328 5327 5338 5337 5334 5333 5338 5342 5351 5362 5378 5388 5381 5372 5386 5376 5352 5341 5339 5326 5318 5311 5306 5301 5299 5294 5292 5292 5290 5288 5287 5285 5283 5282 5279 5274 5270 5267 5262 5256 5253 5249 5247